STARLINK-32122, 60285

Orbit data source: Space-Track

STARLINK-32122, 60285 is a payload satellite owned by SpaceX/Seattle (US) in LEO that was launched on Sun, 28 Jul 2024 UTC via an FALCON 9 launch vehicle from the Air Force Eastern Test Range (AFETR). Payload-class satellites include a variety of spacecraft equipped with specific instruments for various scientific and technological missions. These include communications satellites like Starlink; space stations such as the ISS; scientific satellites like the Hubble; Earth observation satellites from companies like Planet Labs, Umbra, and HawkEye 360; GPS; miniature CubeSats for education and research; and military/defense satellites.

Loading next visibility...
Identifier
60285, 2024-132H
Orbit
LEO
Country
Flag of USUS
Related business
Manufacturer
SpaceX/Seattle
Mission
Operational Commercial Communications
Bus & Motor
STARLINK V2M, Unknown motor
Mass
730 kg wet, ~700 kg dry
Launch date (UTC)
2024-07-28 (2 years ago)
Launch vehicle
FALCON 9
Launch site
Air Force Eastern Test Range (AFETR)
Object type
Payload
Rocket body
Debris
Shape & HBR
Box + 2 Pan, 17.7 m
Radar Cross Section
33.884 m², Large (>1 m²)

Expand to show TLE details & history
Last TLE update: 1 day ago

TLE from 1 day ago
0 STARLINK-32122
1 60285U 24132H   26071.19531992 -.00004466  00000-0 -13869-3 0  9990
2 60285  53.1609  40.8192 0001428 124.5770 235.5365 15.30208282 91945
Epoch: 2026-03-12T04:41Z
TLE epoch observation values (Epoch: 2026-03-12T04:41:15.641Z)
Latitude
-0.00005°
Longitude
160.6553°
Altitude
476.644 km
Speed
7.628 km/s
True Right ascension
02h 43m 16s
True Declination
0° 00' 00"
Sunlit
Object was in daylight at epoch
Visualization orbit readout
Latitude
Unknown
Longitude
Unknown
Altitude
Unknown
Speed
Unknown
Apparent Right ascension
Unknown
Apparent Declination
Unknown
Sunlit
N/A
Visualization observer readout
Local Sidereal Time
11:48:19
Azimuth
Unknown
Elevation
Unknown
Doppler factor
Unknown
Orbital elements
Apogee altitude
476.425 km
Perigee altitude
474.468 km
Semi-major axis
6,853.584 km
Eccentricity
0.00014
Inclination
53.1609°
RAAN
40.8192°
Arg. of periapsis
124.577°
True anomaly
235.52301°
Mean anomaly
235.5365°
Eccentric anomaly
235.52975°
Mean motion
3.82531 °/min
Orbital period
94.11 mins
BSTAR
-0.00013869
Loading maneuver chart data...
Computing Atmospheric mass density...
Loading historical data...
Loading historical data...
Loading historical data...
Loading historical data...
Loading historical data...
Loading historical data...
Loading historical data...

Documentation

Showing up to 5 results
|